• In Hungary
  • List of Countries
  • For 7 days
  • Water Temperature
  • Satellite Maps
  • Weather Map
  • News
  • Weather Widgets
  • user-avatar
    Login

    Hourly Weather Ko Lanta Noi

    Today, 24 November, Friday

    Time Temperature Precipitation Wind Pressure Humidity
    00:00 +28°C° 0 mm 3 mps 753 mmHg 87%
    01:00 +28°C° 0 mm 3 mps 753 mmHg 88%
    02:00 +27°C° 0.1 mm 3 mps 753 mmHg 89%
    03:00 +27°C° 0.1 mm 3 mps 753 mmHg 90%
    04:00 +27°C° 0.1 mm 3 mps 753 mmHg 90%
    05:00 +27°C° 0 mm 3 mps 753 mmHg 90%
    06:00 +27°C° 0 mm 3 mps 753 mmHg 90%
    07:00 +27°C° 0 mm 3 mps 754 mmHg 88%
    08:00 +29°C° 0 mm 3 mps 754 mmHg 80%
    09:00 +32°C° 0 mm 4 mps 754 mmHg 71%
    10:00 +33°C° 0 mm 4 mps 754 mmHg 63%
    11:00 +34°C° 0 mm 4 mps 754 mmHg 59%
    12:00 +35°C° 0 mm 4 mps 754 mmHg 56%
    13:00 +36°C° 0 mm 4 mps 754 mmHg 52%
    14:00 +35°C° 0 mm 4 mps 753 mmHg 54%
    15:00 +35°C° 0 mm 4 mps 753 mmHg 55%
    16:00 +34°C° 0 mm 4 mps 752 mmHg 57%
    17:00 +33°C° 0.1 mm 4 mps 753 mmHg 64%
    18:00 +30°C° 0.1 mm 4 mps 753 mmHg 71%
    19:00 +29°C° 0.1 mm 5 mps 753 mmHg 78%
    20:00 +28°C° 0.2 mm 5 mps 753 mmHg 81%
    21:00 +28°C° 0.2 mm 5 mps 754 mmHg 83%
    22:00 +28°C° 0.2 mm 5 mps 754 mmHg 86%
    23:00 +27°C° 0.2 mm 5 mps 754 mmHg 86%

    Tomorrow, 25 November, Saturday

    Time Temperature Precipitation Wind Pressure Humidity
    00:00 +27°C° 0.2 mm 5 mps 754 mmHg 87%
    01:00 +27°C° 0.2 mm 5 mps 754 mmHg 88%
    02:00 +27°C° 0.4 mm 5 mps 754 mmHg 89%
    03:00 +27°C° 0.4 mm 5 mps 754 mmHg 90%
    04:00 +26°C° 0.4 mm 5 mps 753 mmHg 90%
    05:00 +27°C° 0.2 mm 5 mps 753 mmHg 90%
    06:00 +27°C° 0.2 mm 5 mps 754 mmHg 89%
    07:00 +27°C° 0.2 mm 5 mps 754 mmHg 89%
    08:00 +28°C° 0 mm 5 mps 754 mmHg 81%
    09:00 +30°C° 0 mm 5 mps 755 mmHg 74%
    10:00 +33°C° 0 mm 5 mps 755 mmHg 66%
    11:00 +34°C° 0 mm 5 mps 755 mmHg 64%
    12:00 +34°C° 0 mm 4 mps 754 mmHg 61%
    13:00 +35°C° 0 mm 4 mps 754 mmHg 59%
    14:00 +34°C° 0.5 mm 4 mps 753 mmHg 62%
    15:00 +34°C° 0.5 mm 4 mps 753 mmHg 65%
    16:00 +33°C° 0.5 mm 4 mps 752 mmHg 68%
    17:00 +32°C° 0.7 mm 4 mps 753 mmHg 74%
    18:00 +29°C° 0.7 mm 4 mps 753 mmHg 80%
    19:00 +28°C° 0.7 mm 4 mps 754 mmHg 86%
    20:00 +28°C° 0 mm 4 mps 754 mmHg 87%
    21:00 +27°C° 0 mm 4 mps 755 mmHg 88%
    22:00 +27°C° 0 mm 4 mps 755 mmHg 90%
    23:00 +27°C° 0.1 mm 4 mps 755 mmHg 90%

    Day after tomorrow, 26 November, Sunday

    Time Temperature Precipitation Wind Pressure Humidity
    00:00 +27°C° 0.1 mm 4 mps 755 mmHg 91%
    01:00 +27°C° 0.1 mm 4 mps 755 mmHg 91%
    02:00 +26°C° 0.1 mm 4 mps 754 mmHg 92%
    03:00 +26°C° 0.1 mm 4 mps 754 mmHg 92%
    04:00 +26°C° 0.1 mm 4 mps 753 mmHg 93%
    05:00 +26°C° 0 mm 4 mps 754 mmHg 93%
    06:00 +26°C° 0 mm 3 mps 754 mmHg 92%
    07:00 +27°C° 0 mm 3 mps 754 mmHg 92%
    08:00 +28°C° 0 mm 3 mps 755 mmHg 84%
    09:00 +30°C° 0 mm 3 mps 755 mmHg 75%
    10:00 +33°C° 0 mm 3 mps 755 mmHg 67%
    11:00 +33°C° 0.6 mm 3 mps 755 mmHg 71%
    12:00 +31°C° 0.6 mm 3 mps 754 mmHg 74%
    13:00 +31°C° 0.6 mm 3 mps 753 mmHg 77%
    14:00 +31°C° 2 mm 3 mps 753 mmHg 80%
    15:00 +30°C° 2 mm 3 mps 752 mmHg 82%
    16:00 +30°C° 2 mm 3 mps 752 mmHg 84%
    17:00 +29°C° 1.9 mm 4 mps 752 mmHg 86%
    18:00 +28°C° 1.9 mm 4 mps 753 mmHg 89%
    19:00 +27°C° 1.9 mm 4 mps 753 mmHg 91%
    20:00 +27°C° 0.3 mm 4 mps 754 mmHg 92%
    21:00 +27°C° 0.3 mm 4 mps 754 mmHg 92%
    22:00 +27°C° 0.3 mm 4 mps 755 mmHg 93%
    23:00 +26°C° 0.1 mm 4 mps 754 mmHg 94%

    27 November, Monday

    Time Temperature Precipitation Wind Pressure Humidity
    00:00 +26°C° 0.1 mm 4 mps 754 mmHg 94%
    01:00 +26°C° 0.1 mm 4 mps 754 mmHg 94%
    02:00 +26°C° 0.3 mm 4 mps 753 mmHg 95%
    03:00 +26°C° 0.3 mm 4 mps 753 mmHg 95%
    04:00 +26°C° 0.3 mm 3 mps 752 mmHg 96%
    05:00 +26°C° 0 mm 3 mps 753 mmHg 95%
    06:00 +26°C° 0 mm 3 mps 753 mmHg 94%
    07:00 +26°C° 0 mm 3 mps 754 mmHg 94%
    08:00 +28°C° 0 mm 3 mps 754 mmHg 86%
    09:00 +29°C° 0 mm 3 mps 754 mmHg 78%
    10:00 +31°C° 0 mm 3 mps 755 mmHg 71%
    11:00 +32°C° 0.2 mm 2 mps 754 mmHg 69%
    12:00 +32°C° 0.2 mm 2 mps 754 mmHg 68%
    13:00 +33°C° 0.2 mm 1 mps 753 mmHg 67%
    14:00 +32°C° 1.6 mm 1 mps 752 mmHg 70%
    15:00 +32°C° 1.6 mm 1 mps 752 mmHg 74%
    16:00 +31°C° 1.6 mm 1 mps 751 mmHg 77%
    17:00 +30°C° 1.8 mm 1 mps 751 mmHg 81%
    18:00 +29°C° 1.8 mm 1 mps 752 mmHg 85%
    19:00 +27°C° 1.8 mm 1 mps 753 mmHg 89%
    20:00 +27°C° 0.9 mm 1 mps 753 mmHg 90%
    21:00 +27°C° 0.9 mm 1 mps 754 mmHg 91%
    22:00 +27°C° 0.9 mm 1 mps 754 mmHg 92%
    23:00 +27°C° 0.3 mm 2 mps 754 mmHg 93%

    28 November, Tuesday

    Time Temperature Precipitation Wind Pressure Humidity
    00:00 +26°C° 0.3 mm 2 mps 753 mmHg 93%
    01:00 +26°C° 0.3 mm 2 mps 753 mmHg 94%
    02:00 +26°C° 0.4 mm 2 mps 753 mmHg 94%
    03:00 +26°C° 0.4 mm 2 mps 752 mmHg 95%
    04:00 +26°C° 0.4 mm 2 mps 752 mmHg 95%
    05:00 +26°C° 0.5 mm 2 mps 752 mmHg 94%
    06:00 +26°C° 0.5 mm 2 mps 753 mmHg 94%
    07:00 +26°C° 0.5 mm 2 mps 753 mmHg 94%
    08:00 +27°C° 0.2 mm 2 mps 754 mmHg 89%
    09:00 +28°C° 0.2 mm 2 mps 754 mmHg 84%
    10:00 +30°C° 0.2 mm 2 mps 755 mmHg 79%
    11:00 +30°C° 0.1 mm 2 mps 754 mmHg 74%
    12:00 +31°C° 0.1 mm 1 mps 753 mmHg 69%
    13:00 +32°C° 0.1 mm 1 mps 753 mmHg 64%
    14:00 +31°C° 0.8 mm 1 mps 752 mmHg 71%
    15:00 +30°C° 0.8 mm 1 mps 752 mmHg 78%
    16:00 +29°C° 0.8 mm 1 mps 751 mmHg 85%
    17:00 +28°C° 1.1 mm 1 mps 752 mmHg 87%
    18:00 +28°C° 1.1 mm 1 mps 753 mmHg 89%
    19:00 +27°C° 1.1 mm 1 mps 753 mmHg 92%
    20:00 +27°C° 0.4 mm 1 mps 753 mmHg 92%
    21:00 +26°C° 0.4 mm 1 mps 754 mmHg 92%
    22:00 +26°C° 0.4 mm 1 mps 754 mmHg 92%
    23:00 +26°C° 0.4 mm 2 mps 754 mmHg 93%

    29 November, Wednesday

    Time Temperature Precipitation Wind Pressure Humidity
    00:00 +26°C° 0.4 mm 2 mps 753 mmHg 94%
    01:00 +26°C° 0.4 mm 2 mps 753 mmHg 94%
    02:00 +26°C° 1.2 mm 2 mps 753 mmHg 94%
    03:00 +26°C° 1.2 mm 2 mps 752 mmHg 94%
    04:00 +26°C° 1.2 mm 2 mps 752 mmHg 94%
    05:00 +26°C° 0.9 mm 2 mps 753 mmHg 94%
    06:00 +25°C° 0.9 mm 3 mps 753 mmHg 95%
    07:00 +25°C° 0.9 mm 3 mps 753 mmHg 95%
    08:00 +26°C° 0.9 mm 3 mps 754 mmHg 94%
    09:00 +26°C° 0.9 mm 2 mps 754 mmHg 92%
    10:00 +27°C° 0.9 mm 2 mps 754 mmHg 91%
    11:00 +27°C° 1.1 mm 3 mps 753 mmHg 91%
    12:00 +27°C° 1.1 mm 3 mps 753 mmHg 91%
    13:00 +27°C° 1.1 mm 3 mps 752 mmHg 91%
    14:00 +27°C° 2.1 mm 3 mps 752 mmHg 92%
    15:00 +27°C° 2.1 mm 3 mps 751 mmHg 93%
    16:00 +26°C° 2.1 mm 3 mps 751 mmHg 94%
    17:00 +26°C° 1.6 mm 4 mps 751 mmHg 94%
    18:00 +26°C° 1.6 mm 4 mps 751 mmHg 94%
    19:00 +26°C° 1.6 mm 5 mps 751 mmHg 95%
    20:00 +26°C° 3.8 mm 5 mps 752 mmHg 95%
    21:00 +26°C° 3.8 mm 5 mps 752 mmHg 95%
    22:00 +26°C° 3.8 mm 5 mps 752 mmHg 95%
    23:00 +26°C° 2.2 mm 5 mps 752 mmHg 95%
    Show more